Weather History for Bentonville, AR

Change the Weather History Date:

Sunday, January 12, 2014

  Actual Average Record
Temperature  
Mean Temperature 48 °F -  
Max Temperature 66 °F 41 °F 69 °F (1960)
Min Temperature 30 °F 19 °F -8 °F (1977)
Degree Days  
Heating Degree Days 17    
Moisture  
Dew Point 28 °F    
Average Humidity 46    
Maximum Humidity 80    
Minimum Humidity 24    
Precipitation  
Precipitation 0.00 in - - ()
Sea Level Pressure  
Sea Level Pressure 29.79 in    
Wind  
Wind Speed 12 mph (South)    
Max Wind Speed 26 mph    
Max Gust Speed 39 mph    
Visibility 10 miles    
Events      
Averages and records for this station are not official NWS values.
T = Trace of Precipitation, MM = Missing Value Source: NWS Daily Summary

Daily Weather History Graph

Daily Weather History Graph

Search for Another Location

Airport:

Trip Planner

Search our weather history database for the weather conditions in past years. The results will help you decide how hot, cold, wet, or windy it might be!

Date:

Astronomy

Jan. 12, 2014 Rise Set
Actual Time 7:28 AM CST 5:22 PM CST
Civil Twilight 7:00 AM CST 5:50 PM CST
Nautical Twilight 6:28 AM CST 6:22 PM CST
Astronomical Twilight 5:57 AM CST 6:53 PM CST
Moon 2:50 PM CST (1/12) 4:28 AM CST (1/12)
Length of Visible Light 10h 50m
Length of Day
9h 54m
Waxing Gibbous, 90% of the Moon is Illuminated
Jan 12
Waxing Gibbous
Jan 15
Full
Jan 23
Last Quarter
Jan 30
New
Feb 6
First Quarter

Hourly Weather History & Observations

Time (CST) Temp. Windchill Dew Point Humidity Pressure Visibility Wind Dir Wind Speed Gust Speed Precip Events Conditions
12:15 AM 30.2 °F 25.4 °F 24.8 °F 80% 29.97 in 10.0 mi SSE 4.6 mph - N/A   Clear
12:35 AM 32.0 °F 26.4 °F 26.6 °F 80% 29.97 in 10.0 mi South 5.8 mph - N/A   Clear
12:55 AM 33.8 °F 28.6 °F 24.8 °F 70% 29.96 in 10.0 mi South 5.8 mph - N/A   Clear
1:15 AM 30.2 °F 24.3 °F 24.8 °F 80% 29.96 in 10.0 mi SSE 5.8 mph - N/A   Clear
1:35 AM 32.0 °F 26.4 °F 24.8 °F 75% 29.96 in 10.0 mi SSE 5.8 mph - N/A   Clear
1:55 AM 30.2 °F 24.3 °F 24.8 °F 80% 29.95 in 10.0 mi SSE 5.8 mph - N/A   Clear
2:15 AM 33.8 °F 28.6 °F 24.8 °F 70% 29.96 in 10.0 mi SSE 5.8 mph - N/A   Clear
2:35 AM 32.0 °F 25.6 °F 24.8 °F 75% 29.95 in 10.0 mi SSE 6.9 mph - N/A   Clear
2:55 AM 32.0 °F 24.8 °F 26.6 °F 80% 29.94 in 10.0 mi SE 8.1 mph - N/A   Clear
3:15 AM 32.0 °F 25.6 °F 24.8 °F 75% 29.94 in 10.0 mi SSE 6.9 mph - N/A   Clear
3:35 AM 32.0 °F 25.6 °F 24.8 °F 75% 29.93 in 10.0 mi SE 6.9 mph - N/A   Clear
3:55 AM 32.0 °F 25.6 °F 24.8 °F 75% 29.93 in 10.0 mi SSE 6.9 mph - N/A   Clear
4:15 AM 33.8 °F 27.7 °F 24.8 °F 70% 29.92 in 10.0 mi SSE 6.9 mph - N/A   Clear
4:35 AM 32.0 °F 26.4 °F 24.8 °F 75% 29.92 in 10.0 mi SSE 5.8 mph - N/A   Clear
4:55 AM 32.0 °F 26.4 °F 24.8 °F 75% 29.91 in 10.0 mi South 5.8 mph - N/A   Clear
5:15 AM 33.8 °F 29.6 °F 24.8 °F 70% 29.91 in 10.0 mi South 4.6 mph - N/A   Clear
5:35 AM 35.6 °F 29.9 °F 24.8 °F 65% 29.90 in 10.0 mi SSE 6.9 mph - N/A   Clear
5:55 AM 35.6 °F 29.2 °F 26.6 °F 70% 29.90 in 10.0 mi SSE 8.1 mph - N/A   Clear
6:15 AM 35.6 °F 29.9 °F 26.6 °F 70% 29.90 in 10.0 mi South 6.9 mph - N/A   Clear
6:35 AM 37.4 °F 32.8 °F 26.6 °F 65% 29.90 in 10.0 mi South 5.8 mph - N/A   Clear
6:55 AM 37.4 °F 32.1 °F 26.6 °F 65% 29.90 in 10.0 mi South 6.9 mph - N/A   Clear
7:15 AM 37.4 °F 31.4 °F 24.8 °F 60% 29.89 in 10.0 mi SSE 8.1 mph - N/A   Clear
7:35 AM 37.4 °F 31.4 °F 26.6 °F 65% 29.89 in 10.0 mi South 8.1 mph - N/A   Clear
7:55 AM 39.2 °F 35.0 °F 26.6 °F 61% 29.89 in 10.0 mi South 5.8 mph - N/A   Clear
8:15 AM 42.8 °F 38.0 °F 26.6 °F 53% 29.89 in 10.0 mi South 8.1 mph - N/A   Clear
8:35 AM 44.6 °F 38.8 °F 26.6 °F 49% 29.89 in 10.0 mi South 11.5 mph - N/A   Clear
8:55 AM 48.2 °F - 26.6 °F 43% 29.89 in 10.0 mi South 12.7 mph 18.4 mph N/A   Clear
9:15 AM 50.0 °F - 28.4 °F 43% 29.89 in 10.0 mi South 17.3 mph 23.0 mph N/A   Clear
9:35 AM 51.8 °F - 28.4 °F 41% 29.89 in 10.0 mi South 19.6 mph 26.5 mph N/A   Clear
9:55 AM 53.6 °F - 28.4 °F 38% 29.88 in 10.0 mi SSW 16.1 mph 29.9 mph N/A   Clear
10:15 AM 55.4 °F - 28.4 °F 36% 29.87 in 10.0 mi South 19.6 mph 28.8 mph N/A   Clear
10:35 AM 55.4 °F - 28.4 °F 36% 29.86 in 10.0 mi South 23.0 mph 31.1 mph N/A   Clear
10:55 AM 57.2 °F - 28.4 °F 33% 29.84 in 10.0 mi South 17.3 mph 28.8 mph N/A   Clear
11:15 AM 59.0 °F - 28.4 °F 31% 29.83 in 10.0 mi SSW 24.2 mph 39.1 mph N/A   Clear
11:35 AM 59.0 °F - 28.4 °F 31% 29.81 in 10.0 mi SSW 20.7 mph 35.7 mph N/A   Clear
11:55 AM 60.8 °F - 28.4 °F 29% 29.79 in 10.0 mi SSW 20.7 mph 34.5 mph N/A   Clear
12:15 PM 60.8 °F - 28.4 °F 29% 29.78 in 10.0 mi SSW 23.0 mph 34.5 mph N/A   Clear
12:35 PM 60.8 °F - 28.4 °F 29% 29.76 in 10.0 mi SSW 21.9 mph 31.1 mph N/A   Clear
12:55 PM 62.6 °F - 28.4 °F 27% 29.75 in 10.0 mi SSW 20.7 mph 32.2 mph N/A   Clear
1:15 PM 62.6 °F - 28.4 °F 27% 29.73 in 10.0 mi SSW 26.5 mph 38.0 mph N/A   Clear
1:35 PM 62.6 °F - 28.4 °F 27% 29.72 in 10.0 mi South 26.5 mph 33.4 mph N/A   Clear
1:55 PM 64.4 °F - 28.4 °F 26% 29.71 in 10.0 mi South 23.0 mph 33.4 mph N/A   Clear
2:15 PM 64.4 °F - 28.4 °F 26% 29.70 in 10.0 mi South 25.3 mph 31.1 mph N/A   Clear
2:35 PM 64.4 °F - 28.4 °F 26% 29.69 in 10.0 mi SSW 24.2 mph 34.5 mph N/A   Clear
2:55 PM 66.2 °F - 28.4 °F 24% 29.69 in 10.0 mi SSW 24.2 mph 32.2 mph N/A   Clear
3:15 PM 66.2 °F - 28.4 °F 24% 29.69 in 10.0 mi South 20.7 mph 27.6 mph N/A   Clear
3:35 PM 66.2 °F - 28.4 °F 24% 29.68 in 10.0 mi SSW 18.4 mph 25.3 mph N/A   Clear
3:55 PM 64.4 °F - 28.4 °F 26% 29.68 in 10.0 mi SSW 18.4 mph 29.9 mph N/A   Clear
4:15 PM 64.4 °F - 28.4 °F 26% 29.69 in 10.0 mi SSW 26.5 mph 33.4 mph N/A   Clear
4:35 PM 64.4 °F - 28.4 °F 26% 29.68 in 10.0 mi South 15.0 mph 21.9 mph N/A   Clear
4:55 PM 62.6 °F - 28.4 °F 27% 29.67 in 10.0 mi South 15.0 mph 27.6 mph N/A   Clear
5:15 PM 62.6 °F - 28.4 °F 27% 29.66 in 10.0 mi South 19.6 mph 27.6 mph N/A   Clear
5:35 PM 60.8 °F - 28.4 °F 29% 29.66 in 10.0 mi South 16.1 mph 25.3 mph N/A   Clear
5:55 PM 60.8 °F - 28.4 °F 29% 29.66 in 10.0 mi South 15.0 mph 25.3 mph N/A   Clear
6:15 PM 60.8 °F - 28.4 °F 29% 29.66 in 10.0 mi South 17.3 mph 25.3 mph N/A   Clear
6:35 PM 60.8 °F - 28.4 °F 29% 29.66 in 10.0 mi South 19.6 mph 28.8 mph N/A   Clear
6:55 PM 60.8 °F - 28.4 °F 29% 29.68 in 10.0 mi South 17.3 mph 26.5 mph N/A   Clear
7:15 PM 60.8 °F - 28.4 °F 29% 29.68 in 10.0 mi SSW 17.3 mph 25.3 mph N/A   Clear
7:35 PM 59.0 °F - 28.4 °F 31% 29.68 in 10.0 mi South 15.0 mph 24.2 mph N/A   Clear
7:55 PM 60.8 °F - 28.4 °F 29% 29.68 in 10.0 mi South 17.3 mph 24.2 mph N/A   Clear
8:15 PM 59.0 °F - 28.4 °F 31% 29.68 in 10.0 mi SSW 17.3 mph 25.3 mph N/A   Clear
8:35 PM 59.0 °F - 28.4 °F 31% 29.68 in 10.0 mi SSW 15.0 mph 23.0 mph N/A   Clear
8:55 PM 57.2 °F - 28.4 °F 33% 29.68 in 10.0 mi South 18.4 mph 25.3 mph N/A   Clear
9:15 PM 57.2 °F - 28.4 °F 33% 29.68 in 10.0 mi South 16.1 mph 23.0 mph N/A   Clear
9:35 PM 57.2 °F - 28.4 °F 33% 29.67 in 10.0 mi South 17.3 mph 28.8 mph N/A   Clear
9:55 PM 57.2 °F - 30.2 °F 36% 29.66 in 10.0 mi South 19.6 mph 28.8 mph N/A   Clear
10:15 PM 57.2 °F - 30.2 °F 36% 29.66 in 10.0 mi SSW 21.9 mph 29.9 mph N/A   Clear
10:35 PM 57.2 °F - 30.2 °F 36% 29.65 in 10.0 mi SSW 18.4 mph 27.6 mph N/A   Clear
10:55 PM 57.2 °F - 33.8 °F 41% 29.64 in 10.0 mi SSW 18.4 mph 29.9 mph N/A   Clear
11:15 PM 57.2 °F - 33.8 °F 41% 29.64 in 10.0 mi SSW 17.3 mph 34.5 mph N/A   Clear
11:35 PM 57.2 °F - 35.6 °F 44% 29.65 in 10.0 mi SSW 21.9 mph 29.9 mph N/A   Clear
11:55 PM 57.2 °F - 35.6 °F 44% 29.66 in 10.0 mi SSW 18.4 mph 28.8 mph N/A   Clear